Location: Nordegg
(52.4712°N, 116.0743°W)
Time: 14:44:48
(UTC+00:00)

Envisat - Pass Details

Date: 05 December 2021
Orbit: 764 x 766 km, 98.2° (Epoch: 26 January)

Event Time Altitude Azimuth Distance (km) Brightness Sun altitude
Rises 13:12:58 0° 13° (NNE) 3,248 6.3 -20.9°
Reaches altitude 10° 13:15:18 10° 12° (NNE) 2,317 5.5 -20.6°
Maximum altitude 13:20:23 75° 288° (WNW) 800 2.9 -19.8°
Drops below altitude 10° 13:25:27 10° 204° (SSW) 2,299 5.3 -19.0°
Sets 13:27:44 0° 203° (SSW) 3,221 6.1 -18.7°
